Location: Centerville
(32.8776°N, 96.6203°W)
Time: 05:41:46
(UTC+00:00)

Cosmos 2221 - Pass Details

Date: 17 June 2021
Orbit: 591 x 616 km, 82.5° (Epoch: 29 July)

Event Time Altitude Azimuth Distance (km) Brightness Sun altitude
Rises 07:50:31 0° 1° (N) 2,851 7.0 -30.3°
Reaches altitude 10° 07:52:49 10° 7° (N) 1,941 5.9 -30.2°
Enters shadow 07:55:44 36° 37° (NE) 959 3.9 -29.9°
